Orbital Elements at Epoch 2459000.5 (2020-May-31.0) TDB
Reference: JPL 27 (heliocentric ecliptic J2000)
Element | Value | Uncertainty (1-sigma) | Units |
e | .1614229742759379 | 3.3276e-08 | |
a | 2.225586878722081 | 5.5825e-09 | au |
q | 1.866326025249262 | 7.2659e-08 | au |
i | 4.638284539399661 | 3.6377e-06 | deg |
node | 284.6864376549838 | 4.344e-05 | deg |
peri | 84.9763023365868 | 4.5209e-05 | deg |
M | 90.17254200105187 | 1.1402e-05 | deg |
tp | 2458696.735465491142 (2019-Aug-01.23546549) | 3.8242e-05 | TDB |
period | 1212.733166842665 3.32 | 4.5629e-06 1.249e-08 | d yr |
n | .296850131457405 | 1.1169e-09 | deg/d |
Q | 2.584847732194901 | 6.4837e-09 | au |
|
| | Orbit Determination Parameters
Additional Information
|